Погода в Табате

Россия / Республика Хакасия     52°55′29″N   90°42′47″E
темп.,
°C
ветер,
м/с
пор.,
м/с
влажн.,
%
обл.,
%
осадки,
мм/ч
давл.,
гПа
погр.,
м
12 апреля, пн
пн1201:00−1ю228052 0.0 103713
04:00−2ю22835 0.0 103614
07:00−1ю2178100 0.0 103627
10:00+5юз2455100 0.0 1033386
13:00+10зюз5735100 0.0 1030848
16:00+10юз5845100 0.0 1029797
19:00+7ююз4766100 0.1 1030179
22:00+5ю3575100 0.1 102886
13 апреля, вт
вт1301:00+4ю458078 0.1 102679
04:00+5юз6125963 0.0 1024321
07:00+5юз61261100 0.0 1024475
10:00+6зюз41056100 0.0 1024764
13:00+7сз3647100 0.1 10241424
16:00+2з3796100 2.4 1026519
19:00+4з5970100 4.2 10261111
22:000з7127457 0.7 1030722
14 апреля, ср
ср1401:00−1юз61172100 0.9 1032508
04:00−1юз61276100 0.0 1031808
07:00−1зюз81476100 0.0 1032981
10:00+2зюз91261100 0.0 10321499
13:00+4з81160100 0.8 10301670
16:00+5з91255100 0.4 10281968
19:00+3зюз81366100 0.4 10271096
22:00+2зюз101672100 0.1 1026980
15 апреля, чт
чт1501:00+2зюз81476100 0.3 1025859
04:00+2зюз81380100 0.1 10251009
07:00+3зюз71376100 0.1 1025918
10:00+6зюз71164100 0.1 10251123
13:00+9з71050100 0.1 10231646
16:00+10з795482 0.0 10221590
19:00+8зюз5964100 0.0 1021565
22:00+5ююз3678100 0.0 1021162
16 апреля, пт
пт1601:00+3ю348391 0.0 102059
04:00+3ююз368073 0.0 102088
07:00+4ююз387486 0.0 1019212
10:00+10юз610526 0.0 10181541
13:00+13зюз794217 0.0 10161762
16:00+14зюз694242 0.0 10151964
19:00+11зюз58524 0.0 1016520
22:00+7ю34745 0.0 101769